| time (UTC) | temp F | wind direction | speed MPH | gust MPH | rain 1hr in | rain 24hr in | rain mn in | humidity % | barometer mb |
| 20260906233006 | 64 | 38 | 4.0 | 9.0 | 0.01 | 0.26 | 0.20 | 72 | 1012.1 |
| 20260906231602 | 63 | 58 | 3.0 | 8.0 | 0.01 | 0.26 | 0.20 | 73 | 1012.2 |
| 20260906230107 | 63 | 38 | 5.0 | 8.0 | 0.01 | 0.26 | 0.20 | 75 | 1012.3 |
| 20260906224559 | 63 | 13 | 4.0 | 7.0 | 0.01 | 0.25 | 0.19 | 75 | 1012.6 |
| 20260906223057 | 62 | 10 | 4.0 | 8.0 | 0.01 | 0.25 | 0.19 | 77 | 1012.6 |
| 20260906221553 | 62 | 15 | 9.0 | 12.0 | 0.01 | 0.25 | 0.19 | 77 | 1012.8 |
| 20260906220052 | 62 | 14 | 7.0 | 11.0 | 0.01 | 0.25 | 0.19 | 77 | 1012.9 |
| 20260906214550 | 62 | 5 | 6.0 | 10.0 | 0.01 | 0.24 | 0.18 | 77 | 1012.8 |
| 20260906213055 | 62 | 355 | 7.0 | 10.0 | 0.01 | 0.24 | 0.18 | 77 | 1012.8 |
| 20260906211549 | 61 | 360 | 4.0 | 9.0 | 0.01 | 0.24 | 0.18 | 80 | 1012.6 |
| 20260906210048 | 61 | 343 | 5.0 | 7.0 | 0.01 | 0.24 | 0.18 | 82 | 1012.5 |
| 20260906204551 | 61 | 323 | 3.0 | 7.0 | 0.01 | 0.23 | 0.17 | 81 | 1012.7 |
| 20260906203047 | 61 | 319 | 2.0 | 6.0 | 0.01 | 0.23 | 0.17 | 82 | 1012.6 |
| 20260906201612 | 61 | 311 | 0.0 | 4.0 | 0.01 | 0.24 | 0.17 | 82 | 1012.8 |
| 20260906200046 | 61 | 280 | 2.0 | 5.0 | 0.02 | 0.24 | 0.17 | 82 | 1012.8 |
| 20260906194554 | 61 | 281 | 2.0 | 5.0 | 0.01 | 0.23 | 0.16 | 83 | 1012.7 |
| 20260906193046 | 61 | 270 | 3.0 | 5.0 | 0.01 | 0.23 | 0.16 | 82 | 1012.9 |
| 20260906191543 | 62 | 214 | 3.0 | 5.0 | 0.02 | 0.24 | 0.16 | 80 | 1013.2 |
| 20260906190041 | 61 | 150 | 0.0 | 2.0 | 0.01 | 0.23 | 0.15 | 80 | 1013.3 |
| 20260906184541 | 61 | 150 | 0.0 | 3.0 | 0.01 | 0.23 | 0.15 | 81 | 1013.3 |
| 20260906183043 | 61 | 140 | 3.0 | 8.0 | 0.02 | 0.23 | 0.15 | 83 | 1013.3 |
| 20260906181546 | 61 | 138 | 10.0 | 14.0 | 0.01 | 0.23 | 0.14 | 84 | 1013.0 |
| 20260906180040 | 60 | 107 | 10.0 | 15.0 | 0.01 | 0.23 | 0.14 | 88 | 1013.2 |
| 20260906174533 | 58 | 94 | 9.0 | 15.0 | 0.02 | 0.23 | 0.14 | 89 | 1013.8 |
| 20260906173033 | 58 | 78 | 10.0 | 16.0 | 0.02 | 0.23 | 0.14 | 90 | 1014.0 |
| 20260906171533 | 57 | 73 | 8.0 | 16.0 | 0.01 | 0.23 | 0.13 | 90 | 1014.4 |
| 20260906170032 | 56 | 109 | 13.0 | 19.0 | 0.02 | 0.23 | 0.13 | 92 | 1013.9 |
| 20260906164528 | 55 | 93 | 6.0 | 9.0 | 0.01 | 0.22 | 0.12 | 93 | 1015.0 |
| 20260906163041 | 54 | 32 | 4.0 | 9.0 | 0.01 | 0.22 | 0.12 | 94 | 1015.5 |
| 20260906161527 | 54 | 5 | 4.0 | 7.0 | 0.02 | 0.23 | 0.12 | 93 | 1015.4 |
| 20260906160028 | 54 | 80 | 2.0 | 8.0 | 0.02 | 0.23 | 0.12 | 93 | 1015.4 |
| 20260906154523 | 54 | 78 | 5.0 | 8.0 | 0.01 | 0.22 | 0.11 | 93 | 1015.3 |
| 20260906153022 | 54 | 66 | 4.0 | 8.0 | 0.02 | 0.22 | 0.11 | 93 | 1015.5 |
| 20260906151523 | 53 | 54 | 6.0 | 10.0 | 0.01 | 0.22 | 0.10 | 93 | 1015.7 |
| 20260906150026 | 53 | 75 | 7.0 | 11.0 | 0.01 | 0.22 | 0.10 | 93 | 1015.7 |
| 20260906144520 | 53 | 55 | 8.0 | 14.0 | 0.02 | 0.22 | 0.10 | 93 | 1015.8 |
| 20260906143019 | 53 | 67 | 9.0 | 15.0 | 0.01 | 0.21 | 0.09 | 93 | 1016.1 |
| 20260906141518 | 53 | 44 | 14.0 | 23.0 | 0.01 | 0.22 | 0.09 | 92 | 1016.0 |
| 20260906140019 | 54 | 28 | 12.0 | 20.0 | 0.02 | 0.22 | 0.09 | 90 | 1016.4 |
| 20260906134512 | 55 | 38 | 9.0 | 19.0 | 0.01 | 0.21 | 0.08 | 90 | 1015.8 |
| 20260906133014 | 55 | 360 | 4.0 | 7.0 | 0.01 | 0.21 | 0.08 | 90 | 1015.3 |
| 20260906131511 | 55 | 74 | 2.0 | 5.0 | 0.01 | 0.22 | 0.08 | 89 | 1015.2 |
| 20260906130016 | 55 | 74 | 6.0 | 8.0 | 0.01 | 0.21 | 0.07 | 89 | 1015.1 |
| 20260906124513 | 55 | 29 | 2.0 | 5.0 | 0.01 | 0.21 | 0.07 | 90 | 1015.7 |
| 20260906123029 | 55 | 43 | 4.0 | 11.0 | 0.01 | 0.21 | 0.07 | 89 | 1015.8 |
| 20260906121510 | 55 | 63 | 12.0 | 17.0 | 0.02 | 0.21 | 0.07 | 89 | 1015.5 |
| 20260906120009 | 55 | 40 | 9.0 | 19.0 | 0.01 | 0.20 | 0.06 | 89 | 1015.5 |
| 20260906114509 | 57 | 52 | 12.0 | 23.0 | 0.01 | 0.20 | 0.06 | 86 | 1015.6 |
| 20260906113012 | 57 | 16 | 5.0 | 10.0 | 0.02 | 0.20 | 0.06 | 86 | 1015.5 |
| 20260906111506 | 57 | 146 | 9.0 | 15.0 | 0.01 | 0.19 | 0.05 | 87 | 1014.9 |
| 20260906110005 | 56 | 169 | 7.0 | 9.0 | 0.01 | 0.19 | 0.05 | 91 | 1014.8 |
| 20260906104504 | 56 | 167 | 2.0 | 4.0 | 0.02 | 0.19 | 0.05 | 91 | 1015.1 |
| 20260906103003 | 56 | 88 | 1.0 | 3.0 | 0.01 | 0.18 | 0.04 | 91 | 1015.5 |
| 20260906101502 | 56 | 88 | 2.0 | 9.0 | 0.01 | 0.18 | 0.04 | 90 | 1015.6 |
| 20260906100003 | 56 | 97 | 9.0 | 13.0 | 0.02 | 0.18 | 0.04 | 90 | 1015.4 |
| 20260906094600 | 56 | 98 | 12.0 | 17.0 | 0.02 | 0.18 | 0.04 | 90 | 1015.4 |
| 20260906093105 | 56 | 100 | 14.0 | 18.0 | 0.01 | 0.17 | 0.03 | 91 | 1015.5 |
| 20260906091558 | 55 | 98 | 14.0 | 19.0 | 0.02 | 0.17 | 0.03 | 92 | 1015.6 |
| 20260906090112 | 55 | 94 | 14.0 | 21.0 | 0.01 | 0.16 | 0.02 | 93 | 1015.7 |
| 20260906084601 | 55 | 86 | 13.0 | 18.0 | 0.02 | 0.16 | 0.02 | 93 | 1016.2 |
| 20260906083052 | 55 | 53 | 10.0 | 18.0 | 0.02 | 0.16 | 0.02 | 92 | 1016.6 |
| 20260906081556 | 56 | 34 | 11.0 | 18.0 | 0.02 | 0.15 | 0.01 | 88 | 1017.3 |
| 20260906080054 | 57 | 101 | 3.0 | 11.0 | 0.02 | 0.15 | 0.01 | 87 | 1017.0 |
| 20260906074548 | 56 | 17 | 20.0 | 39.0 | 0.02 | 0.15 | 0.01 | 90 | 1017.5 |
| 20260906073054 | 55 | 94 | 7.0 | 14.0 | 0.02 | 0.14 | 0.00 | 91 | 1016.4 |
| 20260906071542 | 55 | 63 | 6.0 | 11.0 | 0.01 | 0.13 | 0.13 | 91 | 1016.9 |
| 20260906070053 | 55 | 65 | 8.0 | 13.0 | 0.02 | 0.13 | 0.13 | 89 | 1017.0 |
| 20260906064541 | 55 | 87 | 11.0 | 17.0 | 0.02 | 0.13 | 0.13 | 88 | 1016.9 |
| 20260906063042 | 56 | 79 | 15.0 | 22.0 | 0.01 | 0.12 | 0.12 | 87 | 1017.0 |
| 20260906061552 | 55 | 88 | 12.0 | 21.0 | 0.02 | 0.12 | 0.12 | 90 | 1017.1 |
| 20260906060041 | 55 | 66 | 10.0 | 18.0 | 0.01 | 0.11 | 0.11 | 90 | 1017.5 |
| 20260906054540 | 56 | 22 | 9.0 | 14.0 | 0.01 | 0.11 | 0.11 | 87 | 1018.3 |
| 20260906053044 | 57 | 55 | 14.0 | 25.0 | 0.01 | 0.11 | 0.11 | 84 | 1017.1 |
| 20260906051537 | 56 | 77 | 12.0 | 22.0 | 0.01 | 0.10 | 0.10 | 86 | 1017.1 |
| 20260906050138 | 56 | 72 | 16.0 | 22.0 | 0.01 | 0.10 | 0.10 | 86 | 1017.3 |
| 20260906044537 | 56 | 54 | 10.0 | 16.0 | 0.01 | 0.10 | 0.10 | 87 | 1017.2 |
| 20260906043045 | 56 | 84 | 13.0 | 16.0 | 0.01 | 0.10 | 0.10 | 87 | 1016.7 |
| 20260906041536 | 56 | 42 | 8.0 | 17.0 | 0.01 | 0.09 | 0.09 | 86 | 1016.8 |
| 20260906040041 | 57 | 78 | 18.0 | 24.0 | 0.01 | 0.09 | 0.09 | 85 | 1016.1 |
| 20260906034534 | 57 | 92 | 19.0 | 25.0 | 0.01 | 0.09 | 0.09 | 86 | 1016.0 |
| 20260906033034 | 57 | 97 | 15.0 | 21.0 | 0.01 | 0.09 | 0.09 | 86 | 1016.1 |
| 20260906031533 | 58 | 71 | 9.0 | 17.0 | 0.00 | 0.08 | 0.08 | 84 | 1017.3 |
| 20260906030036 | 60 | 355 | 8.0 | 12.0 | 0.00 | 0.08 | 0.08 | 75 | 1017.5 |
| 20260906024536 | 61 | 26 | 4.0 | 9.0 | 0.00 | 0.08 | 0.08 | 70 | 1016.1 |
| 20260906023037 | 61 | 68 | 6.0 | 10.0 | 0.00 | 0.08 | 0.08 | 70 | 1014.7 |
| 20260906021532 | 61 | 72 | 9.0 | 15.0 | 0.00 | 0.08 | 0.08 | 68 | 1014.4 |
| 20260906020031 | 62 | 86 | 9.0 | 13.0 | 0.00 | 0.08 | 0.08 | 68 | 1014.7 |
| 20260906014541 | 63 | 82 | 12.0 | 14.0 | 0.00 | 0.08 | 0.08 | 67 | 1014.7 |
| 20260906013032 | 63 | 90 | 8.0 | 16.0 | 0.00 | 0.08 | 0.08 | 66 | 1014.8 |
| 20260906011530 | 64 | 91 | 11.0 | 17.0 | 0.00 | 0.08 | 0.08 | 64 | 1014.7 |
| 20260906010029 | 65 | 80 | 9.0 | 16.0 | 0.00 | 0.08 | 0.08 | 62 | 1014.6 |
| 20260906004530 | 65 | 87 | 13.0 | 18.0 | 0.00 | 0.08 | 0.08 | 61 | 1014.7 |
| 20260906003029 | 66 | 84 | 11.0 | 18.0 | 0.00 | 0.08 | 0.08 | 59 | 1014.6 |
| 20260906001528 | 67 | 63 | 11.0 | 16.0 | 0.00 | 0.08 | 0.08 | 57 | 1014.9 |
| 20260906000028 | 68 | 70 | 11.0 | 17.0 | 0.00 | 0.08 | 0.08 | 55 | 1015.1 |
| 20260905234527 | 68 | 77 | 12.0 | 18.0 | 0.00 | 0.08 | 0.08 | 54 | 1014.9 |